STARLINK-33756, 63458

Orbit data source: Space-Track

STARLINK-33756, 63458 is a payload satellite owned by SpaceX/Seattle (US) in LEO that was launched on Fri, 04 Apr 2025 UTC via an FALCON 9 launch vehicle from the Air Force Western Test Range (AFWTR). Payload-class satellites include a variety of spacecraft equipped with specific instruments for various scientific and technological missions. These include communications satellites like Starlink; space stations such as the ISS; scientific satellites like the Hubble; Earth observation satellites from companies like Planet Labs, Umbra, and HawkEye 360; GPS; miniature CubeSats for education and research; and military/defense satellites.

Loading next visibility...
Identifier
63458, 2025-069AB
Orbit
LEO
Country
Flag of USUS
Related business
Manufacturer
SpaceX/Seattle
Mission
Operational Commercial Communications
Bus & Motor
STARLINK V2MO, Unknown motor
Mass
575 kg wet, ~530 kg dry
Launch date (UTC)
2025-04-04 (8 months ago)
Launch vehicle
FALCON 9
Launch site
Air Force Western Test Range (AFWTR)
Object type
Payload
Rocket body
Debris
Shape & HBR
Box + 2 Pan, 17.7 m
Radar Cross Section
36.964 m², Large (>1 m²)

Expand to show TLE details & history
Last TLE update: 12 hours ago

TLE from 12 hours ago
0 STARLINK-33756
1 63458U 25069AB  25346.77074220  .00037866  00000-0  12847-2 0  9991
2 63458  53.1589 186.4291 0001275  96.5659 263.5487 15.30185033 40092
Epoch: 2025-12-12T18:29Z
TLE epoch observation values (Epoch: 2025-12-12T18:29:52.126Z)
Latitude
0.00001°
Longitude
-172.74568°
Altitude
476.258 km
Speed
7.629 km/s
True Right ascension
12h 25m 42s
True Declination
0° 00' 00"
Sunlit
Object was in daylight at epoch
Visualization orbit readout
Latitude
Unknown
Longitude
Unknown
Altitude
Unknown
Speed
Unknown
Apparent Right ascension
Unknown
Apparent Declination
Unknown
Sunlit
N/A
Visualization observer readout
Local Sidereal Time
05:23:35
Azimuth
Unknown
Elevation
Unknown
Doppler factor
Unknown
Orbital elements
Apogee altitude
476.39 km
Perigee altitude
474.643 km
Semi-major axis
6,853.653 km
Eccentricity
0.00013
Inclination
53.1589°
RAAN
186.4291°
Arg. of periapsis
96.5659°
True anomaly
263.53418°
Mean anomaly
263.5487°
Eccentric anomaly
263.54144°
Mean motion
3.82525 °/min
Orbital period
94.11 mins
BSTAR
0.0012847
Loading maneuver chart data...
Computing Atmospheric mass density...
Loading historical data...
Loading historical data...
Loading historical data...
Loading historical data...
Loading historical data...
Loading historical data...
Loading historical data...

Documentation

Showing up to 5 results
|